Location: Filler
(36.7551°N, 30.4456°E)
Time: 21:58:41
(UTC+00:00)

FENGYUN 3A - Pass Details

Date: 18 September 2024
Orbit: 821 x 835 km, 98.6° (Epoch: 14 October)

Event Time Altitude Azimuth Distance (km) Brightness Sun altitude
Rises 01:13:52 0° 359° (N) 3,365 7.2 -29.5°
Reaches altitude 10° 01:16:35 10° 346° (NNW) 2,427 6.2 -29.0°
Enters shadow 01:18:07 17° 334° (NNW) 1,991 5.6 -28.8°
